DW9918 Weather Reports


Display with metric or nautical units.
time (UTC)temp
F
wind
direction
speed
MPH
gust
MPH
rain 1hr
in
rain 24hr
in
rain mn
in
humidity
%
barometer
mb
20260508115132 66 82 7.0 10.0 0.00 0.00 0.00 76 1016.2
20260508114506 65 85 5.0 10.0 0.00 0.00 0.00 75 1015.8
20260508114142 66 88 7.0 10.0 0.00 0.00 0.00 76 1016.3
20260508113143 66 95 7.0 13.0 0.00 0.00 0.00 77 1016.3
20260508113005 66 86 7.0 13.0 0.00 0.00 0.00 75 1015.8
20260508112152 66 82 7.0 12.0 0.00 0.00 0.00 79 1016.2
20260508111522 65 96 7.0 11.0 0.00 0.00 0.00 76 1015.8
20260508111137 66 91 8.0 11.0 0.00 0.00 0.00 76 1016.3
20260508110138 67 86 9.0 11.0 0.00 0.00 0.00 78 1016.3
20260508110017 66 79 8.0 11.0 0.00 0.00 0.00 77 1015.9
20260508105132 66 93 5.0 9.0 0.00 0.00 0.00 77 1016.4
20260508104515 65 32 6.0 12.0 0.00 0.00 0.00 78 1015.9
20260508104141 66 92 6.0 12.0 0.00 0.00 0.00 77 1016.4
20260508103135 66 92 7.0 11.0 0.00 0.00 0.00 78 1016.4
20260508103015 65 86 9.0 11.0 0.00 0.00 0.00 78 1015.9
20260508102143 66 77 8.0 12.0 0.00 0.00 0.00 78 1016.4
20260508101509 66 70 8.0 12.0 0.00 0.00 0.00 78 1015.9
20260508101130 66 97 5.0 10.0 0.00 0.00 0.00 77 1016.4
20260508100132 66 81 7.0 12.0 0.00 0.00 0.00 78 1016.3
20260508100004 65 96 8.0 12.0 0.00 0.00 0.00 76 1015.9
20260508095138 66 94 6.0 13.0 0.00 0.00 0.00 76 1016.5
20260508094528 65 98 8.0 11.0 0.00 0.00 0.00 77 1016.0
20260508094146 66 82 6.0 10.0 0.00 0.00 0.00 77 1016.5
20260508093131 65 49 5.0 10.0 0.00 0.00 0.00 79 1016.4
20260508093023 65 46 4.0 10.0 0.00 0.00 0.00 79 1016.0
20260508092131 66 90 5.0 10.0 0.00 0.00 0.00 79 1016.4
20260508091517 65 86 5.0 10.0 0.00 0.00 0.00 79 1015.9
20260508091143 66 86 6.0 10.0 0.00 0.00 0.00 79 1016.5
20260508090128 65 98 6.0 9.0 0.00 0.00 0.00 79 1016.6
20260508090017 65 87 6.0 9.0 0.00 0.00 0.00 78 1016.0
20260508085142 66 41 5.0 12.0 0.00 0.00 0.00 79 1016.5
20260508084510 65 96 7.0 13.0 0.00 0.00 0.00 80 1015.9
20260508084137 65 44 7.0 13.0 0.00 0.00 0.00 81 1016.3
20260508083139 66 82 6.0 12.0 0.00 0.00 0.00 78 1016.4
20260508083030 65 88 5.0 12.0 0.00 0.00 0.00 78 1015.9
20260508082124 65 56 6.0 11.0 0.00 0.00 0.00 80 1016.4
20260508081528 64 70 5.0 10.0 0.00 0.00 0.00 81 1015.9
20260508081133 65 82 8.0 10.0 0.00 0.00 0.00 82 1016.4
20260508080132 65 91 3.0 10.0 0.00 0.00 0.00 83 1016.3
20260508080024 64 75 5.0 10.0 0.00 0.00 0.00 83 1015.8
20260508075146 64 89 5.0 8.0 0.00 0.00 0.00 82 1016.3
20260508074525 64 92 5.0 9.0 0.00 0.00 0.00 82 1015.8
20260508074130 65 86 7.0 9.0 0.00 0.00 0.00 81 1016.2
20260508073134 64 36 5.0 9.0 0.00 0.00 0.00 84 1016.1
20260508073023 64 88 6.0 9.0 0.00 0.00 0.00 84 1015.7
20260508072129 64 90 6.0 9.0 0.00 0.00 0.00 84 1016.0
20260508071514 63 117 6.0 9.0 0.00 0.00 0.00 85 1015.6
20260508071140 64 60 5.0 9.0 0.00 0.00 0.00 86 1016.0
20260508070124 63 81 7.0 9.0 0.00 0.00 0.00 85 1015.9
20260508070013 63 80 7.0 9.0 0.00 0.00 0.00 86 1015.5
20260508065129 63 69 5.0 9.0 0.00 0.00 0.00 86 1015.9
20260508064544 63 77 5.0 9.0 0.00 0.00 0.00 85 1015.4
20260508064135 63 73 5.0 9.0 0.00 0.00 0.00 87 1015.8
20260508063132 63 91 6.0 10.0 0.00 0.00 0.00 88 1015.8
20260508063028 62 75 6.0 10.0 0.00 0.00 0.00 88 1015.4
20260508062157 62 93 4.0 7.0 0.00 0.00 0.00 93 1015.6
20260508061526 61 77 0.0 2.0 0.00 0.00 0.00 94 1015.2
20260508061130 61 77 0.0 2.0 0.00 0.00 0.00 95 1015.5
20260508060125 61 287 0.0 0.0 0.00 0.00 0.00 95 1015.5
20260508060024 60 287 0.0 0.0 0.00 0.00 0.00 94 1015.1
20260508055131 59 287 0.0 0.0 0.00 0.00 0.00 95 1015.3
20260508054520 58 287 0.0 0.0 0.00 0.00 0.00 94 1015.1
20260508054134 58 287 0.0 0.0 0.00 0.00 0.00 95 1015.4
20260508053142 57 287 0.0 2.0 0.00 0.00 0.00 94 1015.3
20260508053016 56 289 0.0 2.0 0.00 0.00 0.00 94 1015.1
20260508052135 56 250 0.0 0.0 0.00 0.00 0.00 94 1015.3
20260508051529 55 272 0.0 2.0 0.00 0.00 0.00 93 1015.0
20260508051133 56 270 1.0 2.0 0.00 0.00 0.00 94 1015.1
20260508050138 55 217 2.0 2.0 0.00 0.00 0.00 93 1015.1
20260508050030 55 230 1.0 2.0 0.00 0.00 0.00 93 1014.8
20260508045153 55 229 2.0 3.0 0.00 0.00 0.00 93 1015.0
20260508044526 55 243 0.0 2.0 0.00 0.00 0.00 92 1014.6
20260508044150 56 262 1.0 2.0 0.00 0.00 0.00 93 1014.8
20260508043134 56 241 0.0 2.0 0.00 0.00 0.00 92 1014.8
20260508043027 55 241 0.0 2.0 0.00 0.00 0.00 92 1014.5
20260508042123 57 231 2.0 2.0 0.00 0.00 0.00 92 1014.6
20260508041520 56 224 0.0 1.0 0.00 0.00 0.00 90 1014.4
20260508041124 57 223 0.0 1.0 0.00 0.00 0.00 90 1014.6
20260508040128 59 116 0.0 1.0 0.00 0.00 0.00 93 1014.5
20260508040016 58 257 0.0 0.0 0.00 0.00 0.00 92 1014.2
20260508035131 59 277 0.0 1.0 0.00 0.00 0.00 93 1014.4
20260508034512 58 277 0.0 3.0 0.00 0.00 0.00 92 1014.1
20260508034211 58 278 1.0 3.0 0.00 0.00 0.00 90 1014.4
20260508033124 60 91 0.0 2.0 0.00 0.00 0.00 91 1014.3
20260508033015 60 91 0.0 2.0 0.00 0.00 0.00 91 1014.0
20260508031507 60 101 0.0 3.0 0.00 0.00 0.00 91 1014.0
20260508031133 61 101 0.0 6.0 0.00 0.00 0.00 91 1014.4
20260508030141 61 93 4.0 6.0 0.00 0.00 0.00 91 1014.4
20260508030007 60 103 4.0 6.0 0.00 0.00 0.00 90 1014.1
20260508025125 61 82 4.0 6.0 0.00 0.00 0.00 91 1014.4
20260508024528 60 88 4.0 6.0 0.00 0.00 0.00 91 1014.0
20260508024140 61 94 5.0 7.0 0.00 0.00 0.00 92 1014.4
20260508023152 61 93 5.0 8.0 0.00 0.00 0.00 92 1014.4
20260508023032 60 94 5.0 8.0 0.00 0.00 0.00 92 1014.0
20260508022130 61 91 3.0 5.0 0.00 0.00 0.00 92 1014.3
20260508021517 60 89 4.0 5.0 0.00 0.00 0.00 91 1014.0
20260508021135 61 100 4.0 5.0 0.00 0.00 0.00 92 1014.4
20260508020150 61 89 4.0 8.0 0.00 0.00 0.00 92 1014.4
20260508020016 60 88 5.0 8.0 0.00 0.00 0.00 91 1014.0
20260508015147 61 88 3.0 5.0 0.00 0.00 0.00 91 1014.5
20260508014511 61 86 3.0 5.0 0.00 0.00 0.00 90 1014.0
20260508014203 61 84 3.0 7.0 0.00 0.00 0.00 91 1014.5
20260508013154 61 94 5.0 7.0 0.00 0.00 0.00 92 1014.4
20260508013006 61 95 4.0 6.0 0.00 0.00 0.00 91 1014.1
20260508012137 61 105 3.0 5.0 0.00 0.00 0.00 91 1014.4
20260508011535 61 96 4.0 7.0 0.00 0.00 0.00 90 1014.1
20260508011144 61 93 6.0 7.0 0.00 0.00 0.00 91 1014.4
20260508010138 61 96 4.0 6.0 0.00 0.00 0.00 91 1014.4
20260508010030 60 96 4.0 6.0 0.00 0.00 0.00 90 1014.0
20260508005134 61 97 3.0 6.0 0.00 0.00 0.00 90 1014.5
20260508004519 60 107 3.0 6.0 0.00 0.00 0.00 90 1014.2
20260508004140 61 91 4.0 6.0 0.00 0.00 0.00 90 1014.5
20260508003137 61 89 0.0 2.0 0.00 0.00 0.00 88 1014.6
20260508003017 61 45 0.0 2.0 0.00 0.00 0.00 88 1014.2
20260508002130 61 77 1.0 3.0 0.00 0.00 0.00 88 1014.7
20260508001513 61 86 1.0 4.0 0.00 0.00 0.00 86 1014.3
20260508001157 62 84 3.0 4.0 0.00 0.00 0.00 87 1014.6
20260508000156 62 94 3.0 5.0 0.00 0.00 0.00 87 1014.6
20260507235134 62 99 4.0 7.0 0.00 0.00 0.00 88 1014.7
20260507234529 61 114 3.0 5.0 0.00 0.00 0.00 88 1014.3
20260507234145 62 101 3.0 5.0 0.00 0.00 0.00 88 1014.7
20260507233128 62 91 3.0 7.0 0.00 0.00 0.00 88 1014.8
20260507233026 61 102 4.0 9.0 0.00 0.00 0.00 88 1014.5
20260507232206 62 99 4.0 8.0 0.00 0.24 0.00 88 1014.8
20260507231524 62 102 5.0 7.0 0.00 0.00 0.00 88 1014.4
20260507231131 62 98 5.0 6.0 0.00 0.24 0.00 89 1014.8
20260507230128 62 105 5.0 7.0 0.00 0.24 0.00 89 1014.8
20260507230022 62 107 5.0 7.0 0.00 0.00 0.00 88 1014.4
20260507225131 62 105 6.0 10.0 0.00 0.24 0.00 89 1014.8
20260507224518 62 101 6.0 10.0 0.00 0.02 0.00 88 1014.4
20260507224203 62 100 6.0 8.0 0.00 0.24 0.00 89 1014.8
20260507223016 61 91 5.0 6.0 0.00 0.03 0.00 89 1014.3
20260507222129 62 103 5.0 7.0 0.00 0.31 0.00 89 1014.7
20260507221528 61 105 4.0 7.0 0.00 0.05 0.00 89 1014.3
20260507221123 62 96 4.0 5.0 0.00 0.31 0.00 90 1014.7
20260507220131 62 90 3.0 5.0 0.00 0.31 0.00 89 1014.7
20260507220028 61 92 3.0 6.0 0.00 0.06 0.00 89 1014.3
20260507215129 62 102 5.0 7.0 0.00 0.31 0.00 89 1014.6
20260507214524 61 91 5.0 7.0 0.00 0.06 0.06 88 1014.1
20260507214136 62 94 5.0 6.0 0.00 0.31 0.00 88 1014.5
20260507213138 62 85 4.0 5.0 0.00 0.31 0.00 87 1014.5
20260507213029 62 88 4.0 5.0 0.00 0.06 0.06 87 1014.1
20260507212138 62 85 4.0 7.0 0.00 0.31 0.00 87 1014.5
20260507211522 61 90 4.0 5.0 0.00 0.06 0.06 87 1014.1
20260507211130 62 98 4.0 5.0 0.00 0.31 0.00 87 1014.6
20260507210123 62 95 5.0 6.0 0.00 0.31 0.00 87 1014.6
20260507210017 61 115 5.0 6.0 0.00 0.06 0.06 86 1014.3
20260507205131 62 96 4.0 5.0 0.00 0.31 0.00 86 1014.7
20260507204514 61 91 4.0 6.0 0.00 0.06 0.06 86 1014.3
20260507204154 62 99 4.0 6.0 0.00 0.31 0.00 86 1014.7
20260507203129 62 98 4.0 5.0 0.00 0.31 0.00 86 1014.7
20260507203008 61 107 4.0 6.0 0.00 0.06 0.06 86 1014.3
20260507202126 62 102 4.0 6.0 0.00 0.31 0.00 86 1014.6
20260507201508 61 101 4.0 7.0 0.00 0.06 0.06 85 1014.4
20260507201133 62 79 4.0 7.0 0.00 0.31 0.00 86 1014.7
20260507200136 62 105 5.0 7.0 0.00 0.31 0.00 86 1014.8
20260507200012 61 110 5.0 7.0 0.00 0.06 0.06 85 1014.4
20260507195123 62 115 5.0 7.0 0.00 0.31 0.00 85 1014.6
20260507194524 62 107 5.0 9.0 0.00 0.06 0.06 84 1014.3
20260507194122 63 85 6.0 10.0 0.00 0.31 0.00 85 1014.6
20260507193126 63 122 6.0 8.0 0.00 0.31 0.00 86 1014.5
20260507193026 62 98 5.0 8.0 0.00 0.06 0.06 86 1014.1
20260507192157 63 95 4.0 8.0 0.00 0.31 0.00 87 1014.6
20260507191516 62 98 5.0 9.0 0.00 0.06 0.06 87 1014.0
20260507190148 62 100 4.0 6.0 0.00 0.31 0.00 86 1014.3
20260507190028 62 101 4.0 6.0 0.00 0.06 0.06 85 1013.9
20260507185204 63 98 4.0 8.0 0.00 0.31 0.00 84 1014.3
20260507184511 62 105 5.0 12.0 0.00 0.06 0.06 82 1013.9
20260507184149 63 118 7.0 12.0 0.00 0.31 0.00 81 1014.2
20260507183142 63 104 7.0 9.0 0.00 0.31 0.00 80 1014.1
20260507183016 62 112 7.0 9.0 0.00 0.06 0.06 79 1013.7
20260507182201 63 95 7.0 9.0 0.00 0.47 0.00 78 1013.9
20260507181523 63 97 6.0 8.0 0.00 0.07 0.06 78 1013.6
20260507181145 63 103 6.0 8.0 0.00 0.47 0.00 78 1013.9
20260507180151 64 119 6.0 9.0 0.00 0.47 0.00 77 1013.9
20260507180023 63 117 6.0 9.0 0.00 0.07 0.06 76 1013.4
20260507175151 64 88 6.0 9.0 0.00 0.47 0.00 74 1013.7
20260507174524 64 108 7.0 11.0 0.00 0.08 0.06 72 1013.2
20260507174149 65 110 7.0 13.0 0.00 0.47 0.00 72 1013.5
20260507173147 65 96 9.0 12.0 0.00 0.47 0.00 71 1013.5
20260507173032 65 94 8.0 12.0 0.00 0.09 0.06 71 1013.1
20260507172143 66 102 7.0 13.0 0.00 0.55 0.00 74 1013.5
20260507171514 65 90 9.0 13.0 0.00 0.10 0.06 71 1013.1
20260507171127 66 108 9.0 13.0 0.00 0.55 0.00 70 1013.5
20260507170133 67 102 6.0 12.0 0.00 0.55 0.00 69 1013.4
20260507170015 66 101 6.0 12.0 0.00 0.11 0.06 68 1013.1
20260507165150 67 112 9.0 12.0 0.00 0.55 0.00 68 1013.4
20260507164525 66 86 8.0 14.0 0.00 0.11 0.06 67 1012.9
20260507164137 67 87 12.0 14.0 0.00 0.55 0.00 66 1013.3
20260507163144 68 79 8.0 12.0 0.00 0.55 0.00 64 1013.2
20260507163027 67 91 8.0 12.0 0.00 0.11 0.06 62 1012.8
20260507161524 67 116 9.0 12.0 0.00 0.11 0.06 62 1012.8
20260507161151 68 88 8.0 13.0 0.00 0.55 0.00 62 1013.2
20260507160155 68 76 10.0 13.0 0.00 0.55 0.00 61 1013.1
20260507160020 67 103 10.0 13.0 0.00 0.11 0.06 58 1012.7
20260507155210 68 91 9.0 13.0 0.00 0.55 0.00 57 1013.2
20260507154516 68 91 10.0 13.0 0.00 0.11 0.06 57 1012.8
20260507154222 68 105 10.0 13.0 0.00 0.55 0.00 59 1013.2
20260507153011 68 87 9.0 13.0 0.00 0.11 0.06 60 1012.9
20260507151529 68 98 11.0 15.0 0.00 0.11 0.06 58 1013.0
20260507150027 68 89 12.0 16.0 0.00 0.11 0.06 62 1013.0
20260507144524 68 84 12.0 17.0 0.00 0.11 0.06 66 1013.0
20260507143021 69 103 12.0 17.0 0.00 0.13 0.06 61 1013.0
20260507141520 69 105 13.0 19.0 0.00 0.16 0.06 60 1013.0
20260507140020 69 83 10.0 14.0 0.00 0.16 0.06 58 1012.9
20260507134527 70 79 9.0 14.0 0.00 0.16 0.06 58 1013.0
20260507133026 70 73 11.0 14.0 0.00 0.16 0.06 58 1012.9
20260507131528 71 357 3.0 10.0 0.00 0.16 0.06 56 1013.0
20260507130030 71 329 2.0 8.0 0.00 0.16 0.06 58 1013.1
20260507124525 69 98 4.0 10.0 0.00 0.16 0.06 58 1013.1
20260507123033 70 89 6.0 9.0 0.00 0.16 0.06 61 1013.2
20260507121537 71 327 3.0 6.0 0.00 0.16 0.06 58 1013.4
20260507120004 71 6 1.0 5.0 0.00 0.16 0.06 55 1013.4